Vorticity
nan nan nan nan nan nan nan nan nan nan nan nan nan nan nan nan nan nan nan nan nan nan nan nan nan nan nan nan nan nan nan nan nan nan nan nan nan nan nan nan nan nan nan nan nan nan nan nan nan nan nan nan nan nan nan nan nan nan nan nan nan nan nan nan nan nan nan nan nan nan nan nan nan nan nan nan nan nan nan nan nan nan nan nan nan nan
nan 9 7 7 9 11 9 7 8 7 6 6 6 6 7 9 10 10 11 11 12 12 11 11 11 11 9 5 3 5 7 7 7 7 8 8 8 8 7 7 8 9 9 9 9 8 8 8 8 8 9 10 11 12 12 11 12 12 14 16 16 16 14 13 12 11 11 10 10 9 9 10 11 12 13 14 15 15 15 15 14 14 14 14 14 nan
nan 8 7 7 9 10 10 8 8 6 6 6 6 8 10 11 11 11 10 10 11 11 11 11 11 11 10 5 -0 1 4 4 6 7 9 9 9 8 8 9 9 9 9 8 8 8 8 8 9 10 10 11 11 11 11 10 10 10 11 12 13 13 12 11 10 10 10 10 10 10 10 11 12 14 15 16 17 16 15 15 15 15 15 14 14 nan
nan 8 9 9 9 9 10 8 7 5 7 8 8 10 12 12 10 10 9 10 10 10 10 11 11 11 10 6 -0 -4 -2 4 7 9 10 10 9 9 9 9 9 8 8 8 8 8 9 10 11 12 13 13 12 12 11 11 10 10 9 9 9 9 9 9 9 9 9 9 10 11 12 12 13 14 15 15 16 16 15 14 14 14 13 13 12 nan
nan 9 9 9 9 10 10 8 7 7 8 10 11 11 12 11 10 10 10 10 10 10 11 11 11 10 9 5 -2 -7 -3 5 9 11 11 11 10 9 9 8 8 8 8 9 9 10 12 13 14 15 15 14 13 12 11 11 10 10 9 9 8 8 9 10 9 10 9 10 11 12 13 13 13 13 13 12 12 13 13 12 12 12 11 11 10 nan
nan 10 10 9 9 10 10 9 8 9 10 10 10 11 11 11 11 10 10 10 11 11 11 11 10 9 8 2 -4 -4 2 7 10 12 12 11 9 9 8 8 8 9 10 11 12 13 14 15 15 15 14 13 12 11 10 10 9 9 9 9 10 10 10 11 10 10 10 10 11 12 13 14 13 13 12 11 11 11 11 11 10 10 9 8 7 nan
nan 9 10 10 10 10 9 8 8 10 11 10 10 10 11 11 11 10 10 11 11 11 11 10 9 8 7 2 1 4 9 10 11 11 10 9 9 8 8 8 9 11 12 13 14 15 15 14 14 12 11 10 10 9 9 9 9 9 9 10 10 11 11 11 11 11 11 11 11 12 12 12 12 12 11 9 9 9 9 9 8 7 7 7 6 nan
nan 10 9 9 10 10 9 8 8 9 10 10 10 10 11 10 10 10 10 11 11 10 10 9 9 9 8 6 7 11 13 13 12 9 6 7 6 6 6 9 11 13 14 15 15 14 13 12 10 9 8 8 8 8 9 9 9 10 10 10 11 11 11 11 11 11 11 11 11 11 11 10 10 10 9 8 8 7 7 7 7 6 6 7 7 nan
nan 10 9 9 9 9 10 9 9 9 10 11 10 10 10 10 10 9 10 10 10 10 9 9 9 9 9 9 9 9 9 11 10 6 5 5 3 1 4 9 11 12 13 14 13 13 11 9 8 8 8 8 9 9 10 11 11 11 11 11 11 11 11 12 11 12 12 11 11 10 10 9 9 9 8 8 8 7 7 7 7 7 8 8 8 nan
nan 9 10 10 9 9 9 9 9 9 10 11 11 10 9 7 7 8 9 10 10 10 8 7 7 8 10 11 10 8 6 4 2 2 4 3 2 4 9 12 11 8 8 11 11 10 9 8 7 8 8 9 10 10 11 12 12 11 11 11 11 12 12 12 12 12 12 11 10 10 9 9 9 9 9 9 8 8 8 8 8 9 9 9 9 nan
nan 10 11 10 10 10 9 9 9 8 8 10 10 10 9 7 5 5 7 10 11 11 8 6 7 8 10 11 10 8 7 5 3 2 3 4 7 11 14 14 12 8 9 11 9 8 6 6 7 8 9 9 10 10 12 12 11 11 11 12 12 12 12 12 12 11 11 11 10 9 9 9 9 9 9 9 9 9 9 9 9 9 10 10 10 nan
nan 11 10 10 10 10 10 10 10 9 7 8 8 8 9 10 8 6 7 8 9 10 9 8 9 10 12 11 10 8 8 7 7 7 7 8 11 13 15 14 13 12 13 11 9 5 3 5 7 9 9 8 8 9 11 12 11 11 12 12 12 12 12 12 11 11 10 10 10 9 9 9 9 10 10 10 10 10 10 10 10 10 10 10 10 nan
nan 11 10 10 10 9 9 10 10 10 8 7 6 7 9 11 10 9 8 7 8 9 10 9 11 13 14 12 9 7 7 8 9 9 10 11 11 12 13 13 13 13 12 11 8 0 -2 5 9 9 8 8 7 8 11 11 11 11 12 12 12 12 12 11 11 10 10 10 10 10 10 10 10 10 10 11 11 11 11 10 10 10 10 10 10 nan
nan 12 11 10 9 9 8 8 9 10 9 8 8 9 10 10 10 9 8 8 9 11 10 8 11 13 14 10 7 5 7 9 10 10 10 11 11 11 11 11 11 11 10 8 5 -1 0 10 12 7 5 7 7 9 10 10 10 11 12 12 12 12 11 11 10 10 10 10 10 10 10 11 11 11 11 11 11 11 11 11 10 10 10 10 10 nan
nan 11 10 10 10 9 8 9 9 10 9 9 10 10 10 10 9 8 8 9 10 11 10 9 11 13 13 9 5 4 6 10 10 9 9 12 13 12 10 10 10 9 8 6 5 2 8 15 14 8 4 1 2 3 6 8 7 10 12 12 12 12 11 11 11 11 11 11 11 11 11 11 11 11 11 11 11 11 10 10 10 10 10 10 10 nan
nan 10 9 9 9 9 9 9 10 10 10 10 11 10 10 10 10 9 9 10 10 10 9 11 13 14 13 9 5 3 6 11 11 9 9 12 13 13 11 9 8 8 7 7 7 8 12 12 10 7 -0 -7 -4 1 7 9 8 9 11 11 11 11 11 11 11 11 11 11 11 11 11 11 11 11 11 11 10 10 10 10 10 10 10 10 10 nan
nan 10 10 9 8 9 10 10 10 11 11 11 11 10 10 9 9 9 10 11 11 10 9 10 12 13 12 9 5 3 7 10 10 9 9 11 12 13 11 8 8 8 7 8 9 10 10 10 9 6 -4 -10 -5 3 9 10 9 10 11 11 11 11 11 11 11 11 11 11 11 11 11 11 11 11 11 10 10 10 10 11 11 11 11 11 11 nan
nan 9 10 10 10 10 10 11 11 11 12 11 10 10 9 9 9 9 9 10 10 11 11 12 12 11 10 8 5 4 7 9 10 8 8 10 12 13 12 9 8 7 7 9 10 11 10 9 4 -2 -13 -11 0 6 9 10 10 10 10 10 10 11 11 11 11 11 11 11 11 11 11 11 11 11 11 11 11 11 11 12 12 12 12 12 12 nan
nan 9 10 10 10 10 12 12 11 11 11 11 10 9 9 9 9 9 10 11 11 11 12 12 11 11 10 7 6 6 8 10 10 7 7 11 13 13 10 7 7 8 9 10 12 12 11 7 0 -6 -8 -1 5 8 9 9 9 9 10 10 10 10 10 10 10 11 11 10 11 10 10 11 11 11 11 12 12 12 12 12 12 12 13 13 12 nan
nan 10 10 10 9 10 11 11 11 11 12 12 11 10 9 9 9 9 10 12 12 12 11 10 10 10 10 8 8 7 8 10 9 8 8 11 13 13 9 7 8 9 10 12 13 11 10 9 5 2 2 5 5 7 8 9 9 9 9 9 9 10 10 10 10 10 11 11 10 10 11 11 12 12 12 12 13 12 13 13 13 13 13 13 13 nan
nan 9 10 10 10 10 10 9 9 10 12 13 12 11 10 10 9 9 10 11 10 10 10 10 10 10 9 7 7 7 8 8 9 10 11 12 11 10 9 8 9 9 10 12 12 10 11 11 10 5 -0 -1 3 6 7 8 9 8 9 9 9 10 10 10 10 11 11 11 11 11 11 12 12 12 12 13 13 13 13 13 13 13 13 13 14 nan
nan 7 8 10 10 8 10 10 8 9 11 12 12 12 11 10 10 9 9 10 9 9 9 10 10 11 10 8 7 8 10 9 8 8 9 8 8 9 10 8 8 8 10 11 11 11 12 12 9 3 -3 -3 2 6 7 8 8 8 9 9 9 10 10 10 11 11 11 11 11 11 11 12 12 12 12 13 13 12 13 13 13 13 13 13 14 nan
nan 8 9 10 9 9 11 13 11 9 8 9 9 11 11 10 10 9 9 9 9 9 10 11 11 12 11 10 9 10 11 11 8 6 6 7 8 10 10 8 8 9 11 11 10 10 12 12 10 6 0 -1 4 6 6 8 8 8 9 9 9 9 10 10 11 11 11 11 11 11 11 12 12 12 12 12 12 12 12 13 12 13 13 14 16 nan
nan 10 12 11 11 12 14 16 16 14 10 6 6 8 10 12 12 11 10 10 10 10 10 11 11 12 13 12 12 11 11 11 8 6 7 8 9 10 9 8 7 9 11 11 10 10 12 12 12 12 5 -0 2 3 5 6 7 8 9 9 9 9 10 11 11 11 11 10 11 11 11 11 11 11 11 12 12 12 12 12 12 13 14 16 18 nan
nan 14 14 11 11 15 18 18 19 21 19 12 9 7 8 11 13 14 13 11 11 10 10 10 10 12 12 12 13 13 12 10 7 6 9 10 8 10 11 8 8 9 10 11 11 11 12 12 12 13 8 1 -2 -0 3 5 6 8 8 9 9 9 10 11 11 11 11 10 10 11 11 11 11 11 11 11 12 12 12 12 12 13 16 18 19 nan
nan 16 15 12 11 13 16 18 18 20 25 26 20 14 10 11 12 13 12 11 10 10 11 11 11 12 12 12 11 11 12 12 9 8 8 8 8 11 11 8 7 8 10 12 11 11 10 12 12 12 9 4 -2 -3 -1 3 6 7 8 8 9 10 11 11 11 11 10 10 11 11 11 11 10 10 10 11 11 12 11 11 13 15 19 21 20 nan
nan 12 12 13 12 12 13 15 14 13 18 24 26 24 19 13 10 8 8 9 10 10 10 11 11 11 11 10 11 11 12 12 10 7 7 8 9 10 9 7 7 9 12 13 11 9 10 14 13 12 10 8 2 -6 -5 3 5 7 8 8 9 10 11 11 11 10 10 11 11 11 11 10 10 10 10 11 11 11 11 12 15 18 22 24 23 nan
nan 6 7 9 9 8 9 10 11 11 12 13 16 23 23 15 10 7 7 9 9 9 9 9 10 11 10 9 11 13 14 11 9 7 7 9 10 9 8 8 8 10 14 14 12 11 16 18 15 12 9 7 4 -2 -2 3 7 9 8 8 8 10 10 10 10 10 11 11 11 11 11 10 10 10 11 11 11 11 11 13 18 23 28 27 24 nan
nan 1 3 5 6 7 8 7 5 5 7 9 11 17 20 16 9 8 8 9 8 8 7 9 10 11 10 10 12 14 14 11 8 7 8 10 11 9 7 8 9 10 14 15 16 17 19 17 14 10 5 3 7 8 6 6 11 11 8 6 9 10 9 9 9 10 11 11 11 11 10 10 10 10 11 11 11 10 10 15 23 31 29 21 17 nan
nan 2 2 2 6 8 10 7 2 -2 0 5 9 15 19 17 11 9 9 9 9 7 7 8 9 10 11 12 14 15 13 9 6 7 10 12 11 9 7 8 9 10 13 15 15 16 14 13 10 7 3 4 10 12 11 10 12 12 7 6 9 7 5 7 9 11 11 11 10 10 10 10 10 10 10 10 10 10 10 17 29 35 26 14 12 nan
nan 7 7 7 9 10 10 9 5 1 -1 2 7 12 16 16 13 10 10 10 10 8 7 8 9 9 11 13 12 13 11 6 3 7 13 14 11 8 8 9 9 10 13 13 12 11 11 11 8 5 4 7 11 11 10 10 11 11 9 9 8 2 -0 6 11 12 11 10 9 9 10 10 10 10 10 10 9 9 9 17 27 32 23 12 11 nan
nan 10 11 11 12 12 10 10 9 7 6 6 7 8 10 12 13 13 12 11 10 9 8 9 9 9 11 11 11 10 9 4 -0 5 15 17 13 8 8 9 9 10 11 11 11 10 10 8 5 4 5 9 11 10 9 10 10 9 8 10 9 0 0 9 12 14 11 9 9 10 10 9 9 9 9 9 9 8 8 14 23 29 24 14 11 nan
nan 11 11 11 12 12 11 10 10 10 10 11 10 8 7 8 10 13 14 12 11 10 9 9 10 10 11 12 12 11 10 4 -2 1 14 20 14 9 8 9 9 10 10 11 12 12 10 6 5 5 7 11 11 11 9 9 9 9 10 11 10 4 6 12 13 13 10 10 11 10 9 10 10 9 9 9 9 8 7 11 17 23 24 20 13 nan
nan 11 11 11 12 11 10 10 10 10 10 10 9 9 9 9 9 10 12 12 12 12 11 9 8 9 11 12 12 12 11 4 -2 1 14 20 14 10 8 9 10 10 11 12 12 13 11 7 6 7 9 10 11 11 10 8 8 10 11 10 10 8 9 11 12 10 10 13 14 11 10 10 8 8 9 8 7 6 5 8 11 15 21 23 17 nan
nan 10 11 11 10 10 10 10 10 10 10 9 8 9 10 11 10 10 10 11 11 11 11 10 9 9 10 10 10 11 10 5 -0 4 14 18 14 11 9 9 9 10 11 11 11 12 10 7 7 9 10 11 12 11 10 8 8 9 9 9 11 10 10 10 9 9 10 12 13 12 11 10 8 7 4 1 1 2 5 8 9 10 14 17 19 nan
nan 9 10 10 9 10 10 10 10 10 10 9 8 8 9 11 10 10 10 10 9 9 10 11 11 11 10 9 8 8 7 5 3 6 14 18 15 12 10 8 7 9 10 10 11 11 9 8 8 9 12 14 13 11 8 7 7 8 8 9 11 12 11 10 10 9 9 9 10 10 10 9 8 7 -0 -4 1 5 9 10 10 9 10 12 14 nan
nan 10 10 11 10 8 9 11 10 10 10 9 8 8 10 10 10 10 11 10 9 9 9 10 10 9 11 12 9 7 5 5 5 7 13 16 14 12 10 7 6 8 10 10 9 9 10 9 10 12 14 14 11 7 4 5 7 8 9 10 12 13 11 10 10 9 8 8 8 8 8 9 9 8 1 1 10 13 13 13 13 10 10 11 11 nan
nan 11 12 12 10 9 9 9 9 9 9 9 8 8 10 10 10 11 11 10 10 10 10 9 8 4 6 11 12 10 8 7 8 9 13 14 12 9 8 8 8 8 9 9 9 9 10 10 10 13 14 11 7 5 6 8 8 9 9 11 13 13 10 9 8 9 8 8 7 8 10 12 12 11 8 12 16 16 14 12 9 7 11 14 12 nan
nan 9 10 10 11 10 10 9 9 10 10 9 8 9 10 12 13 15 13 12 13 13 13 10 8 7 8 10 11 12 13 13 13 13 15 14 10 7 7 8 9 10 10 10 10 10 10 10 9 9 8 8 8 10 11 9 7 6 8 13 15 12 9 8 8 9 9 9 8 10 12 13 12 11 11 11 11 11 12 10 8 9 15 17 11 nan
nan 9 8 9 11 11 10 9 10 11 10 9 9 10 11 13 14 15 14 14 14 16 16 14 13 13 13 13 12 12 14 14 13 14 15 12 9 7 6 7 8 9 11 12 11 11 11 10 8 8 9 8 8 8 9 7 3 1 7 15 13 7 5 9 10 10 9 8 9 11 11 9 8 9 9 9 10 11 12 10 8 8 12 16 13 nan
nan 10 9 9 9 10 11 11 11 12 12 12 10 10 10 10 11 12 12 13 14 15 13 13 16 17 16 15 15 13 12 10 10 12 12 9 8 7 6 7 8 8 11 12 12 12 11 9 10 11 12 11 10 10 10 6 2 3 11 14 9 4 5 10 11 10 8 8 9 8 8 9 9 10 10 11 13 12 10 9 7 7 11 13 11 nan
nan 11 10 10 10 11 10 10 11 13 15 14 10 8 8 10 10 10 9 10 11 10 10 11 13 14 15 16 16 15 13 12 11 11 11 10 9 8 7 7 8 9 11 11 12 13 12 10 11 11 11 11 11 11 9 7 6 8 11 10 8 11 14 14 12 7 6 9 10 8 10 13 12 10 10 12 13 12 11 8 5 6 12 14 12 nan
nan 11 11 11 11 10 10 11 12 14 14 12 10 9 9 10 9 9 10 9 8 8 10 12 12 12 13 13 14 15 16 15 13 11 11 10 10 9 8 9 10 11 11 10 11 12 13 12 13 12 11 11 9 7 6 7 9 11 9 7 10 16 16 10 7 5 7 9 10 10 11 11 11 11 12 13 14 12 11 8 10 13 16 16 13 nan
nan 11 11 12 12 12 12 11 11 12 11 10 9 9 9 9 9 10 12 11 8 9 11 13 13 13 11 9 10 13 16 16 15 13 7 4 8 12 13 13 14 14 12 10 9 9 11 13 14 14 14 11 9 7 7 7 8 9 7 8 11 13 9 4 3 5 9 11 10 8 7 9 11 13 15 14 13 12 11 12 14 14 15 15 12 nan
nan 10 11 11 12 12 11 10 10 11 10 9 9 9 9 9 9 10 11 10 10 11 11 11 12 12 9 9 11 11 12 14 14 14 7 1 4 13 18 16 15 15 14 13 10 8 8 9 11 12 13 12 10 9 8 7 7 6 6 9 12 14 11 7 7 8 9 9 8 6 6 9 12 15 15 13 12 12 10 10 11 12 13 13 12 nan
nan 10 11 11 10 8 9 11 12 13 11 9 10 10 10 10 9 8 10 11 11 12 11 11 11 10 7 8 9 9 9 11 11 11 11 9 10 12 12 12 13 14 15 14 13 12 9 8 8 9 10 12 13 13 11 8 7 7 7 9 12 14 13 11 10 10 9 8 8 6 7 10 13 14 11 11 12 13 13 12 12 12 12 11 11 nan
nan 10 11 11 10 10 9 10 11 12 11 10 11 11 10 9 9 9 10 11 12 10 11 12 10 9 8 9 9 7 8 10 11 11 10 10 11 12 11 10 11 15 16 14 15 15 14 12 11 10 10 11 12 13 12 9 6 6 8 10 11 12 12 11 10 10 10 9 8 7 9 13 14 12 11 12 12 13 13 13 13 13 12 11 10 nan
nan 11 11 11 11 11 10 10 11 10 10 10 11 12 10 5 7 12 13 10 11 10 10 11 10 10 11 11 9 7 8 10 10 10 10 10 10 10 11 12 13 15 16 16 17 19 19 18 17 15 12 9 8 7 7 7 7 9 10 10 11 10 10 10 10 10 11 11 9 10 12 13 12 10 11 10 10 10 10 12 14 15 13 11 10 nan
nan 10 11 11 11 11 10 10 10 9 9 9 11 14 10 4 4 13 15 11 11 10 10 9 10 11 11 10 8 7 10 12 12 11 11 11 10 9 9 12 14 17 17 17 19 19 19 21 22 21 13 5 3 3 5 7 8 10 12 11 11 10 10 10 9 9 10 11 12 14 14 12 12 11 11 9 8 7 9 12 13 14 13 12 10 nan
nan 10 11 11 11 10 10 10 10 9 9 9 11 13 13 10 8 9 10 10 11 11 10 9 10 10 10 9 8 8 10 12 12 12 11 10 9 9 9 11 13 15 16 16 16 16 17 19 21 23 12 -0 0 7 10 9 9 11 12 11 10 10 10 9 9 8 9 11 13 15 14 13 12 12 11 9 8 9 10 10 10 11 12 11 10 nan
nan nan nan nan nan nan nan nan nan nan nan nan nan nan nan nan nan nan nan nan nan nan nan nan nan nan nan nan nan nan nan nan nan nan nan nan nan nan nan nan nan nan nan nan nan nan nan nan nan nan nan nan nan nan nan nan nan nan nan nan nan nan nan nan nan nan nan nan nan nan nan nan nan nan nan nan nan nan nan nan nan nan nan nan nan nan
CAPE
nan nan nan nan nan nan nan nan nan nan nan nan nan nan nan nan nan nan nan nan nan nan nan nan nan nan nan nan nan nan 7 34 61 61 64 64 72 72 77 84 84 96 100 111 111 116 119 125 125 135 143 167 194 194 215 214 214 221 228 237 237 242 241 263 263 311 312 307 309 309 311 323 338 338 353 398 408 408 380 363 363 368 362 351 351 355
nan nan nan nan nan nan nan nan nan nan nan nan nan nan nan nan nan nan nan nan nan nan nan nan nan nan nan nan nan nan 8 43 56 56 59 63 66 66 78 88 88 93 99 109 109 109 107 113 113 120 133 147 170 170 183 183 183 189 211 226 226 225 227 237 237 268 263 265 280 280 293 317 349 349 371 391 380 380 351 342 342 346 329 341 341 364
nan nan nan nan nan nan nan nan nan nan nan nan nan nan nan nan nan nan nan nan nan nan nan nan nan nan nan nan nan nan 9 45 56 56 59 58 65 65 77 89 89 96 101 100 100 99 93 91 91 98 111 130 147 147 148 149 149 162 185 203 203 210 203 207 207 205 207 216 228 228 263 300 362 362 351 348 336 336 304 322 322 341 327 340 340 373
nan nan nan nan nan nan nan nan nan nan nan nan nan nan nan nan nan nan nan nan nan nan nan nan nan nan nan nan nan nan 22 43 50 50 54 61 72 72 81 90 90 91 91 86 86 81 75 74 74 85 100 123 137 137 135 132 132 148 157 167 167 173 173 167 167 168 165 179 198 198 226 269 297 297 299 296 290 290 285 318 318 351 353 354 354 363
nan nan nan nan nan nan nan nan nan nan nan nan nan nan nan nan nan nan nan nan nan nan nan nan nan nan nan nan nan nan 22 43 45 45 57 70 85 85 92 90 90 83 77 70 70 66 65 68 68 82 112 131 135 135 133 136 136 135 129 126 126 130 136 137 137 141 144 154 177 177 215 239 261 261 278 285 277 277 273 316 316 356 345 357 357 352
nan nan nan nan nan nan nan nan nan nan nan nan nan nan nan nan nan nan nan nan nan nan nan nan nan nan nan nan nan nan 18 33 38 38 59 80 92 92 88 80 80 72 65 58 58 59 65 79 79 105 125 141 140 140 138 139 139 123 108 104 104 108 118 128 128 130 139 156 190 190 227 242 256 256 271 278 274 274 273 293 293 351 357 361 361 380
nan nan nan nan nan nan nan nan nan nan nan nan nan nan nan nan nan nan nan nan nan nan nan nan nan nan nan nan 3 3 14 18 35 35 54 70 79 79 71 62 62 60 55 54 54 62 77 100 100 121 142 147 135 135 127 118 118 104 94 93 93 96 107 119 119 133 144 170 205 205 235 240 237 237 244 244 256 256 248 262 262 306 326 340 340 350
nan nan nan nan nan nan nan nan nan nan nan nan nan nan nan nan nan nan nan nan nan nan nan nan nan nan nan nan nan nan nan nan nan nan nan nan 3 3 12 25 25 29 43 64 64 79 98 107 107 106 94 88 81 81 72 64 64 64 71 79 79 92 102 117 117 141 169 199 209 209 205 195 183 183 178 175 177 177 177 183 183 198 227 247 247 268
nan nan nan nan nan nan nan nan nan nan nan nan nan nan nan nan nan nan nan nan nan nan nan nan nan nan nan nan nan nan nan nan nan nan nan nan nan nan nan 4 4 20 50 65 65 83 83 82 82 72 67 61 51 51 45 47 47 50 60 75 75 93 104 124 124 148 170 187 190 190 188 179 176 176 169 163 158 158 151 150 150 155 174 202 202 229
nan nan nan nan nan nan nan nan nan nan nan nan nan nan nan nan nan nan nan nan nan nan nan nan nan nan nan nan nan nan nan nan nan nan 0 nan 0 0 nan nan nan 2 38 58 58 63 59 54 54 50 44 37 32 32 28 30 30 40 55 77 77 90 106 124 124 143 163 167 170 170 168 166 161 161 151 145 146 146 140 134 134 129 146 170 170 191
nan nan nan nan nan nan nan nan nan nan nan nan nan nan nan nan nan nan 4 1 1 nan 3 6 6 nan nan nan nan nan nan nan nan nan nan nan nan nan nan nan nan 6 23 30 30 33 35 36 36 33 27 20 19 19 21 26 26 40 60 78 78 88 103 115 115 133 137 146 144 144 147 149 145 145 140 135 130 130 125 122 122 122 128 140 140 171
nan nan nan nan nan nan nan nan nan nan nan nan nan nan 1 nan nan nan 18 16 16 12 13 6 6 nan nan nan nan nan nan nan nan nan nan nan nan nan nan nan nan nan 3 10 10 9 18 22 22 19 14 9 16 16 20 25 25 42 61 76 76 85 94 100 100 108 115 119 121 121 123 126 127 127 123 124 118 118 114 114 114 111 123 141 141 161
nan nan nan nan nan 0 nan nan 0 0 3 8 9 9 15 24 23 23 25 20 20 20 9 1 1 nan nan nan nan nan nan nan nan nan nan nan nan nan nan nan nan nan nan nan nan nan 1 12 12 11 13 10 16 16 26 32 32 48 62 73 73 78 83 84 84 90 92 94 100 100 102 108 109 109 109 109 104 104 105 106 106 113 120 147 147 163
nan nan nan nan nan 1 2 1 8 8 17 10 14 14 24 31 25 25 20 18 18 14 0 nan nan nan nan nan nan nan nan nan nan nan nan nan nan nan nan nan nan nan nan nan nan nan nan 0 0 nan 7 8 13 13 28 42 42 57 64 68 68 68 71 71 71 72 76 76 81 81 81 86 90 90 90 90 94 94 97 99 99 110 123 145 145 174
nan nan 1 3 3 2 2 4 9 9 17 14 12 12 29 28 26 26 18 15 15 9 nan nan nan nan nan nan nan nan nan nan nan nan nan nan nan nan nan nan nan nan nan nan nan nan nan nan nan nan nan nan 8 8 26 40 40 64 63 61 61 63 64 63 63 65 65 70 72 72 72 76 80 80 84 84 90 90 97 100 100 100 114 140 140 155
10 3 1 1 1 3 3 6 10 10 9 12 30 30 37 26 19 19 18 14 14 5 nan nan nan nan nan nan nan nan nan nan nan nan nan nan nan nan nan nan nan nan nan nan nan nan nan nan nan nan nan 4 34 34 42 47 47 58 56 54 54 56 58 57 57 59 60 61 63 63 66 69 73 73 77 85 91 91 94 99 99 103 117 128 128 153
2 1 1 0 0 3 4 9 13 13 6 10 44 44 36 14 8 8 14 9 9 2 0 0 0 nan nan nan nan nan nan nan nan nan nan nan nan nan nan nan nan nan nan nan nan nan nan nan nan nan nan 19 39 39 39 43 43 49 50 51 51 52 53 53 53 52 55 59 61 61 64 66 71 71 82 83 92 92 101 107 107 117 127 142 142 154
1 1 3 4 4 6 6 3 11 11 15 28 34 34 16 7 8 8 11 6 6 1 nan nan nan nan nan nan nan nan nan nan nan nan nan nan nan nan nan nan nan nan nan nan nan nan nan nan nan nan nan 31 38 38 37 39 39 43 45 47 47 49 49 51 51 52 54 55 59 59 61 67 74 74 82 89 93 93 106 110 110 127 133 149 149 164
1 1 1 5 5 8 7 nan 7 7 21 26 4 4 nan 1 2 2 6 2 2 nan nan nan nan nan nan nan nan nan nan nan nan nan 0 nan nan nan nan nan nan nan nan nan nan nan nan nan nan nan 14 26 33 33 34 35 35 37 39 45 45 44 48 48 48 51 55 55 57 57 63 69 79 79 86 93 97 97 103 113 113 125 133 146 146 157
nan nan nan 0 0 6 7 14 29 29 22 12 nan nan nan nan nan nan 0 nan nan nan nan nan nan nan nan nan nan nan nan nan nan nan 1 nan nan nan nan nan nan nan nan nan nan nan nan nan nan nan 2 16 29 29 32 31 31 34 38 42 42 43 46 47 47 50 51 53 58 58 64 70 76 76 82 89 97 97 97 110 110 119 131 147 147 166
nan nan nan nan nan nan 7 13 28 28 12 3 nan nan nan nan nan nan 2 nan nan nan nan nan nan nan nan nan nan nan nan nan 0 0 1 nan nan nan nan nan nan nan nan nan nan nan nan nan nan nan nan 14 25 25 27 30 30 33 38 39 39 40 42 44 44 46 48 54 57 57 63 70 75 75 79 85 91 91 97 105 105 120 127 146 146 166
nan nan nan nan nan nan 6 3 23 23 6 nan nan nan nan nan nan nan 1 nan nan nan nan nan nan nan nan nan nan nan nan nan 0 0 3 nan nan nan nan nan nan nan nan nan nan nan nan nan nan nan nan 17 19 19 20 24 24 30 34 38 38 39 38 37 37 41 43 50 57 57 64 68 73 73 76 83 89 89 100 110 110 117 131 138 138 158
nan nan nan nan nan 0 1 nan 2 2 2 nan nan nan nan nan nan nan nan nan nan nan nan nan nan nan nan nan nan nan nan nan nan nan 0 nan nan nan nan nan nan nan nan nan nan nan nan nan nan nan nan 11 9 9 12 15 15 22 29 32 32 32 34 34 34 35 39 47 53 53 59 66 71 71 74 83 91 91 98 108 108 119 128 135 135 146
nan nan nan nan nan 1 nan nan nan nan nan nan nan nan nan nan nan nan nan nan nan nan nan nan nan nan nan nan nan nan nan nan nan nan nan nan nan nan nan nan nan 0 nan nan nan nan nan nan nan nan nan nan 3 3 6 10 10 18 22 24 24 27 29 30 30 33 37 43 48 48 56 61 66 66 71 80 88 88 98 105 105 118 127 129 129 114
nan 0 5 9 9 14 4 nan nan nan nan nan nan nan nan nan nan nan nan nan nan nan nan nan nan nan nan nan nan nan nan nan nan nan nan nan nan nan nan nan nan 0 nan nan nan nan nan nan nan nan nan nan nan nan 2 6 6 12 16 19 19 20 23 26 26 28 34 41 45 45 49 56 61 61 66 73 79 79 84 97 97 108 117 111 111 88
3 8 13 21 21 30 32 32 40 40 22 9 nan nan nan nan nan nan nan nan nan nan nan nan nan nan nan nan nan nan nan nan nan nan nan 0 0 0 nan nan nan 0 nan nan nan nan nan nan nan nan nan nan nan nan 0 3 3 7 11 13 13 16 17 21 21 25 30 34 40 40 45 51 53 53 61 68 75 75 85 90 90 100 102 87 87 68
18 22 28 32 32 35 40 43 49 49 75 81 18 18 nan nan nan nan nan nan nan nan nan nan nan nan nan nan nan nan nan nan nan nan nan nan 1 1 nan nan nan nan nan nan nan nan nan nan nan nan nan nan nan nan nan 1 1 3 7 9 9 10 14 17 17 22 25 28 32 32 36 42 47 47 56 63 69 69 78 87 87 94 87 74 74 53
14 17 22 27 27 29 31 39 57 57 67 70 60 60 0 nan nan nan nan 0 0 0 0 nan nan nan nan nan nan nan nan nan nan nan nan 1 0 0 nan nan nan nan nan nan nan nan nan nan nan nan nan nan nan nan nan 0 0 1 3 4 4 6 10 13 13 18 20 23 26 26 32 38 43 43 48 57 61 61 73 83 83 89 81 46 46 6
0 2 6 14 14 14 13 10 51 51 62 52 57 57 3 nan 6 6 1 1 1 1 1 2 2 1 0 nan nan nan nan nan nan nan nan 1 0 0 nan nan nan nan nan nan nan nan nan nan nan nan nan nan nan nan nan nan nan nan 1 2 2 3 6 10 10 14 17 20 24 24 28 33 40 40 43 51 55 55 68 78 78 88 70 28 28 4
nan nan nan nan nan 0 nan nan 9 9 66 53 56 56 34 nan 11 11 4 2 2 3 2 3 3 2 1 nan nan nan nan nan nan nan 1 2 nan nan nan nan nan nan nan nan nan nan nan nan nan nan nan nan nan nan nan nan nan nan nan 0 0 0 4 8 8 12 14 17 20 20 25 30 34 34 38 45 51 51 62 74 74 68 34 7 7 4
nan nan nan nan nan nan nan nan nan nan 23 62 63 63 29 nan 3 3 5 2 2 3 4 3 3 3 2 0 nan nan nan nan nan nan 7 4 nan nan nan nan nan nan nan nan nan nan nan nan nan nan nan nan nan nan nan nan nan nan nan nan nan nan 2 7 7 8 11 14 17 17 22 26 29 29 34 39 44 44 56 69 69 62 19 4 4 2
nan nan nan nan nan nan nan nan nan nan nan nan nan nan 12 10 3 3 nan nan nan nan 0 0 0 nan nan nan nan nan nan nan 1 1 14 1 nan nan nan nan nan nan nan 0 0 0 nan nan nan nan nan nan nan nan nan nan nan nan nan nan nan nan nan 2 2 2 3 9 13 13 16 18 20 20 20 26 34 34 41 47 47 47 17 5 5 6
nan nan nan nan nan nan nan nan nan nan nan nan nan nan nan 0 2 2 nan nan nan nan nan nan nan 0 nan nan nan nan nan nan nan nan 14 nan nan nan nan nan nan nan nan nan nan nan nan nan nan nan nan nan nan nan nan nan nan nan nan nan nan nan nan nan nan nan 0 3 5 5 12 14 16 16 17 21 29 29 36 40 40 42 36 4 4 7
nan nan nan nan nan nan nan nan nan nan nan nan nan nan 1 nan nan nan nan nan nan nan nan nan nan 1 0 0 nan nan nan nan nan nan 4 nan nan nan nan nan nan nan 0 0 0 nan nan nan nan nan nan nan nan nan nan nan nan nan nan nan nan nan nan nan nan nan nan nan nan nan nan 1 10 10 10 17 24 24 31 35 35 36 35 20 20 8
nan nan nan nan nan nan nan nan nan nan nan nan nan nan nan nan nan nan nan nan nan nan nan nan nan nan nan 0 0 0 nan nan nan nan 0 nan nan nan nan nan nan nan nan nan nan nan nan nan nan 0 nan nan nan nan nan nan nan nan nan nan nan nan nan nan nan nan nan nan nan nan nan nan nan nan 2 11 18 18 24 24 24 27 29 36 36 22
nan nan nan nan nan nan nan nan nan nan nan nan nan nan nan nan nan nan nan nan nan nan nan nan nan nan nan nan nan nan nan nan nan nan nan nan nan nan nan nan nan nan nan 0 0 0 nan nan nan 0 0 nan nan nan nan nan nan nan nan nan nan nan nan nan nan nan nan nan nan nan nan nan nan nan 0 13 16 16 14 13 13 16 19 22 22 25
nan nan nan nan nan nan nan nan nan nan nan nan nan nan nan nan nan nan nan nan nan nan nan nan nan nan nan nan nan nan nan nan nan nan nan nan nan nan nan nan nan nan nan nan nan 0 0 nan nan nan nan nan nan nan nan nan nan nan nan nan nan nan nan nan nan nan nan nan nan nan nan nan 0 0 1 12 7 7 7 8 8 8 11 11 11 14
nan nan nan nan nan nan nan nan nan nan nan nan nan nan nan nan nan nan nan nan nan nan nan nan nan nan nan nan nan nan nan nan nan nan nan nan nan nan nan nan nan nan nan nan nan nan nan nan nan nan nan nan nan nan nan nan nan nan nan nan nan nan nan nan nan nan nan nan 0 0 1 0 nan nan nan 0 nan nan nan nan nan 1 4 4 4 8
nan nan nan nan nan nan nan nan nan nan nan nan nan nan nan nan nan nan nan nan nan nan nan nan nan nan nan nan nan nan nan nan nan nan nan nan nan nan nan nan nan nan nan nan nan nan nan nan nan nan nan nan nan nan nan nan nan nan nan nan nan nan nan nan nan nan nan nan 0 0 nan nan nan nan nan nan nan nan nan nan nan nan nan nan nan 0
nan nan nan nan nan nan nan nan nan nan nan 0 nan nan nan nan nan nan nan nan nan nan nan nan nan nan nan nan nan nan nan nan nan nan nan nan nan nan nan nan nan nan nan nan nan nan nan nan nan nan nan nan nan nan nan nan nan nan nan nan nan nan nan nan nan nan nan nan nan nan nan nan nan nan nan nan nan nan nan nan nan nan nan nan nan nan
nan nan nan nan nan nan nan nan nan nan nan nan nan nan nan nan nan nan nan nan nan nan nan nan nan nan nan nan nan nan nan nan nan nan nan nan nan nan nan nan nan nan nan nan nan nan nan nan nan nan nan nan nan nan nan nan nan nan 1 nan nan nan nan nan nan nan nan nan nan nan nan 0 0 0 nan nan nan nan nan nan nan nan nan nan nan nan
2 nan nan nan nan nan nan nan 0 0 0 nan nan nan nan nan nan nan nan nan nan nan nan nan nan nan nan nan nan nan nan nan nan nan nan nan nan nan nan nan nan nan nan nan nan nan nan nan nan nan nan nan nan nan nan nan nan nan nan nan nan nan nan nan nan nan nan nan nan nan 0 nan nan nan nan nan nan nan nan nan nan nan nan nan nan nan
nan nan nan nan nan nan nan nan 1 1 nan nan nan nan nan nan nan nan nan nan nan nan nan nan nan nan nan nan nan nan nan nan nan nan nan nan nan nan nan nan nan nan nan nan nan nan nan nan nan nan nan nan nan nan nan nan nan nan nan nan nan nan nan nan nan nan nan nan nan nan nan nan nan nan nan nan nan nan nan nan nan nan nan nan nan nan
nan nan nan nan nan nan nan nan nan nan 1 3 nan nan nan nan nan nan nan nan nan nan nan nan nan nan nan nan nan nan nan nan nan nan nan nan nan nan nan nan nan nan nan nan nan nan nan nan nan nan nan nan nan nan nan nan nan nan nan nan nan nan nan nan nan nan nan nan nan nan nan nan nan nan nan nan nan nan nan nan nan nan nan nan nan nan
nan nan nan nan nan nan nan nan nan nan 1 4 nan nan nan nan nan nan nan nan nan nan nan nan nan nan nan nan nan nan nan nan nan nan nan nan 1 1 nan nan nan nan nan nan nan nan nan nan nan nan nan nan nan nan nan nan nan nan nan 1 1 nan nan nan nan nan nan nan nan nan nan nan nan nan nan nan nan nan nan nan nan nan nan nan nan nan
nan nan nan nan nan nan nan nan nan nan 1 3 nan nan nan nan nan nan nan nan nan nan nan nan nan nan nan nan nan nan nan nan nan nan nan nan nan nan nan nan nan nan nan nan nan nan nan nan nan nan nan nan nan nan nan nan nan nan nan 0 0 nan nan nan nan nan nan nan nan nan nan nan nan nan nan nan nan nan nan nan nan nan nan nan nan nan
nan nan nan nan nan nan nan nan 0 0 2 5 nan nan nan nan nan nan nan nan nan nan nan nan nan nan nan nan nan nan nan nan nan nan nan nan nan nan nan nan nan nan nan nan nan nan nan nan nan nan nan nan nan nan nan nan nan nan nan nan nan nan nan nan nan nan nan nan nan nan nan nan nan nan nan nan nan nan nan nan nan nan nan nan nan nan
nan nan nan nan nan nan nan nan 0 0 1 2 nan nan nan nan nan nan nan nan nan nan nan nan nan nan nan nan nan nan nan nan nan nan nan nan nan nan nan nan nan nan nan nan nan nan nan nan nan nan nan nan nan nan nan nan nan nan nan nan nan nan nan nan nan nan nan nan nan nan nan nan nan nan nan nan nan nan nan nan nan nan nan nan nan nan
nan nan nan nan nan nan nan nan 0 0 1 1 0 0 nan nan nan nan nan nan nan nan nan nan nan nan nan nan nan nan nan nan nan nan nan nan nan nan nan nan nan nan nan nan nan nan nan nan nan nan nan nan nan nan nan nan nan nan nan nan nan nan nan nan nan nan nan nan nan nan nan nan nan nan nan nan nan nan nan nan nan nan nan nan nan nan
nan nan nan nan nan nan nan 0 0 0 2 1 3 3 nan nan nan nan nan nan nan nan nan nan nan nan nan nan nan nan nan nan nan nan nan nan nan nan nan nan nan nan nan nan nan nan nan nan nan nan nan nan nan nan nan nan nan nan nan nan nan nan nan nan nan nan nan nan nan nan nan nan nan nan nan nan nan nan nan nan nan nan nan nan nan nan
nan nan nan nan nan nan nan 0 1 1 0 1 4 4 nan nan nan nan nan nan nan nan nan nan nan nan nan nan nan nan nan nan nan nan nan nan nan nan nan nan nan nan nan nan nan nan nan nan nan nan nan 4 nan nan nan nan nan nan nan nan nan nan nan nan nan nan nan nan nan nan nan nan nan nan nan nan nan nan nan nan nan nan nan nan nan nan